Home   Weather   Detmold   Past weeks

Flag for Germany Past Weather in Detmold, North Rhine-Westphalia, Germany — Yesterday and Last 2 Weeks

Now
70 °F

Passing clouds.


Feels Like: 70 °F
Forecast: 50 / 63 °F
Wind: 9 mph from West

Location: Paderborn / Lippstadt

Current Time: Sep 29, 2016 at 7:13:53 PM

Latest Report: Sep 29, 2016 at 6:20 PM


Visibility: N/A

Pressure: 29.92 "Hg

Humidity: 50%

Dew Point: 50 °F

Location of DetmoldLocation

Past Weather in Detmold — Graph

°F

Detmold Temperature Yesterday

Maximum temperature yesterday: 68 °F (at 4:20 PM)
Minimum temperature yesterday: 55 °F (at 5:20 AM)
Average temperature yesterday: 63 °F

High & Low Weather Summary for the Past Weeks

 TemperatureHumidityPressure
High84 °F (Sep 14, 5:20 PM)94% (Sep 17, 3:20 PM)30.33 "Hg (Sep 17, 3:20 PM)
Low43 °F (Sep 21, 5:50 AM)28% (Sep 25, 2:50 PM)29.83 "Hg (Sep 15, 4:20 PM)
Average62 °F64%30.11 "Hg
* Reported Sep 14 5:20 PM — Sep 29 5:50 PM, Detmold, Weather by CustomWeather, © 2016

Note: Actual official high and low records may vary slightly from our data, if they occured in-between our weather recording intervals... More about our weather records

Advertising

Detmold Weather History for the Previous 24 Hours

Scroll right to see more
 ConditionsComfort  
Time TempWeatherWind HumidityBarometerVisibility
5:50 PM
Thu, Sep 29
72 °FPassing clouds.9 mph50%29.92 "HgN/A
5:20 PM73 °FPassing clouds.12 mph44%29.92 "HgN/A
4:50 PM73 °FPassing clouds.23 mph41%29.92 "HgN/A
4:20 PM73 °FPassing clouds.17 mph47%29.92 "HgN/A
3:50 PM75 °FSunny.17 mph44%29.92 "Hg10 mi
3:20 PM73 °FSunny.18 mph44%29.95 "Hg10 mi
2:50 PM73 °FSunny.20 mph44%29.95 "Hg10 mi
2:20 PM73 °FSunny.17 mph44%29.95 "Hg10 mi
1:50 PM73 °FSunny.21 mph44%29.98 "Hg10 mi
1:20 PM73 °FSunny.15 mph44%29.98 "Hg10 mi
12:50 PM72 °FSunny.15 mph50%30.01 "Hg10 mi
12:20 PM68 °FSunny.16 mph56%30.01 "Hg10 mi
11:50 AM68 °FSunny.16 mph56%30.01 "Hg10 mi
11:20 AM68 °FSunny.17 mph56%30.04 "Hg10 mi
10:50 AM66 °FSunny.15 mph60%30.07 "Hg10 mi
10:20 AM66 °FSunny.14 mph64%30.07 "Hg10 mi
9:50 AM64 °FSunny.13 mph64%30.07 "Hg10 mi
9:20 AM64 °FSunny.13 mph64%30.07 "Hg10 mi
8:50 AM63 °FSunny.10 mph68%30.07 "Hg10 mi
8:20 AM61 °FSunny.14 mph72%30.09 "Hg10 mi
7:50 AM63 °FSunny.16 mph64%30.09 "Hg10 mi
7:20 AM61 °FClear.13 mph68%30.09 "Hg10 mi
6:50 AM63 °FClear.14 mph64%30.09 "Hg10 mi
6:20 AM63 °FClear.13 mph64%30.12 "Hg10 mi
5:50 AM63 °FPassing clouds.10 mph64%30.12 "HgN/A
5:20 AM63 °FPassing clouds.10 mph68%30.12 "HgN/A
4:50 AM64 °FPassing clouds.15 mph64%30.12 "HgN/A
4:20 AM66 °FPassing clouds.15 mph56%30.15 "HgN/A
3:50 AM66 °FPassing clouds.14 mph56%30.15 "HgN/A
3:20 AM64 °FPassing clouds.13 mph64%30.15 "HgN/A
2:50 AM66 °FPartly cloudy.13 mph60%30.18 "HgN/A
2:20 AM64 °FPartly cloudy.14 mph64%30.18 "HgN/A
1:50 AM66 °FPartly cloudy.14 mph60%30.18 "HgN/A
1:20 AM64 °FPartly cloudy.13 mph64%30.18 "HgN/A
12:50 AM64 °FPassing clouds.14 mph64%30.21 "HgN/A
12:20 AM64 °FPassing clouds.13 mph64%30.21 "HgN/A
11:50 PM
Wed, Sep 28
64 °FClear.12 mph60%30.21 "Hg10 mi
11:20 PM64 °FPassing clouds.10 mph60%30.21 "HgN/A
10:50 PM64 °FClear.13 mph60%30.21 "Hg10 mi
10:20 PM64 °FClear.12 mph60%30.21 "Hg10 mi
9:50 PM64 °FClear.12 mph60%30.21 "Hg10 mi
9:20 PM64 °FClear.12 mph60%30.21 "Hg10 mi
8:50 PM64 °FClear.13 mph60%30.21 "Hg10 mi
8:20 PM64 °FClear.13 mph60%30.21 "Hg10 mi
7:50 PM64 °FClear.12 mph60%30.21 "Hg10 mi
7:20 PM66 °FClear.9 mph56%30.21 "Hg10 mi
Weather by CustomWeather, © 2016

See weather overviewHow to use our weather pages